TimeMST,TemperatureF,Dew PointF,Humidity,Sea Level PressureIn,VisibilityMPH,Wind Direction,Wind SpeedMPH,Gust SpeedMPH,PrecipitationIn,Events,Conditions,WindDirDegrees,DateUTC
12:53 AM,42.1,18.0,38,29.92,10.0,WNW,8.1,-,N/A,,Clear,300,2013-02-18 07:53:00
1:53 AM,41.0,17.1,38,29.95,10.0,West,9.2,-,N/A,,Clear,280,2013-02-18 08:53:00
2:53 AM,39.9,14.0,35,29.96,10.0,WNW,9.2,-,N/A,,Clear,290,2013-02-18 09:53:00
3:53 AM,39.0,10.9,32,29.94,10.0,WNW,11.5,19.6,N/A,,Clear,290,2013-02-18 10:53:00
4:53 AM,36.0,9.0,33,29.98,10.0,SE,4.6,-,N/A,,Clear,130,2013-02-18 11:53:00
5:53 AM,35.1,6.1,30,30.01,10.0,WSW,3.5,-,N/A,,Clear,240,2013-02-18 12:53:00
6:53 AM,33.8,3.2,28,30.08,10.0,West,3.5,-,N/A,,Clear,280,2013-02-18 13:53:00
7:53 AM,33.1,10.0,38,30.08,10.0,SSE,5.8,-,N/A,,Clear,150,2013-02-18 14:53:00
8:53 AM,37.0,8.1,30,30.10,10.0,SE,3.5,-,N/A,,Clear,140,2013-02-18 15:53:00
9:53 AM,41.0,7.0,25,30.11,10.0,Calm,Calm,-,N/A,,Clear,0,2013-02-18 16:53:00
10:53 AM,43.0,8.1,24,30.11,10.0,North,5.8,-,N/A,,Clear,10,2013-02-18 17:53:00
11:53 AM,45.0,3.9,18,30.10,10.0,Variable,3.5,-,N/A,,Clear,0,2013-02-18 18:53:00
12:53 PM,46.9,3.9,17,30.07,10.0,NNE,9.2,-,N/A,,Clear,20,2013-02-18 19:53:00
1:53 PM,48.0,3.0,16,30.04,10.0,NE,6.9,-,N/A,,Clear,40,2013-02-18 20:53:00
2:53 PM,48.9,1.0,14,30.01,10.0,NE,10.4,-,N/A,,Clear,40,2013-02-18 21:53:00
3:53 PM,50.0,-0.4,13,30.03,10.0,NE,8.1,-,N/A,,Clear,50,2013-02-18 22:53:00
4:53 PM,48.9,-0.9,13,29.99,10.0,NNE,8.1,-,N/A,,Clear,20,2013-02-18 23:53:00
5:53 PM,46.4,-0.4,14,30.01,10.0,NNE,5.8,-,N/A,,Clear,20,2013-02-19 00:53:00
6:53 PM,45.0,1.9,17,29.99,10.0,North,3.5,-,N/A,,Clear,10,2013-02-19 01:53:00
7:53 PM,42.1,7.0,24,30.01,10.0,Calm,Calm,-,N/A,,Clear,0,2013-02-19 02:53:00
8:53 PM,39.0,9.0,29,30.01,3.0,Calm,Calm,-,N/A,,Haze,0,2013-02-19 03:53:00
9:53 PM,37.9,8.1,29,30.00,10.0,Calm,Calm,-,N/A,,Clear,0,2013-02-19 04:53:00
10:53 PM,36.0,9.0,33,29.99,10.0,Calm,Calm,-,N/A,,Clear,0,2013-02-19 05:53:00
11:53 PM,36.0,8.1,31,29.98,10.0,Calm,Calm,-,N/A,,Clear,0,2013-02-19 06:53:00